Location: State Camp
(41.2367°N, 77.7828°W)
Time: 21:10:26
(UTC-04:00)

Amateur Radio Satellites - All Passes

Search period start: 31 March 2015 20:40
Search period end: 01 April 2015 20:40
Location: State Camp, 41.2367°N, 77.7828°W

Satellite Date Start Highest point End Downlink Frequencies (MHz)
Time Altitude Azimuth
RS-15 31 Mar 20:42:57 20:53:39 57° 313° (NW) 21:04:33 29.354- 29.394
AUBIESAT-1 31 Mar 20:48:58 20:49:28 10° 306° (NW) 20:49:43 437.475
CANX-2 31 Mar 20:51:47 20:55:55 56° 74° (ENE) 21:00:08 2200.000
UWE-3 31 Mar 20:58:34 20:59:29 11° 63° (ENE) 21:00:37 435.000/436.395/437.385
PRISM 31 Mar 21:01:22 21:04:23 19° 293° (WNW) 21:07:16 437.425
CUTE 1.7 + AOD 2 31 Mar 21:05:15 21:09:28 73° 76° (ENE) 21:13:44 437.475
CUBEBUG 2 31 Mar 21:07:08 21:09:41 17° 66° (ENE) 21:12:24 437.445
CINEMA 3 31 Mar 21:10:45 21:14:28 33° 71° (ENE) 21:18:13 145.822/145.860
CUBESAT XI-V 31 Mar 21:17:03 21:19:16 13° 297° (WNW) 21:21:16 437.345
AAUSAT CUBESAT 2 31 Mar 21:20:07 21:24:15 63° 75° (ENE) 21:28:25 437.432
ISS 31 Mar 21:20:55 21:22:33 13° 131° (SE) 21:24:18 145.825
STRAND 1 31 Mar 21:25:24 21:29:30 24° 294° (WNW) 21:33:28 437.568
SEEDS 31 Mar 21:30:46 21:34:57 68° 259° (W) 21:39:12 437.485
HUMSAT D 31 Mar 21:32:53 21:33:15 10° 63° (ENE) 21:33:51 437.325/437.525
DANDE 31 Mar 21:35:12 21:38:09 74° 280° (W) 21:40:47 436.750
UKube-1 31 Mar 21:37:16 21:40:16 19° 66° (ENE) 21:43:24 .
BRITE-PL 31 Mar 21:39:53 21:43:49 26° 265° (W) 21:47:28 437.365/2234.400
GONETS M04 31 Mar 21:46:12 21:53:11 25° 296° (WNW) 21:59:56
COMPASS 1 31 Mar 21:49:28 21:53:33 50° 261° (W) 21:57:40 437.405
DOVE 4 31 Mar 21:49:42 21:53:50 43° 262° (W) 21:57:50 437.250
DX 1 31 Mar 21:50:11 21:53:49 27° 69° (ENE) 21:57:33 434.975-435.025
Oscar 11 31 Mar 22:04:21 22:08:41 87° 262° (W) 22:13:02 145.826/435.025
GOMX 1 31 Mar 22:14:43 22:17:40 17° 268° (W) 22:20:23 467.674
CUSAT 1 31 Mar 22:14:51 22:15:52 11° 289° (WNW) 22:16:48 437.405
DELFI C3 31 Mar 22:19:13 22:23:16 76° 257° (WSW) 22:27:24 145.870
FUNcube-1 31 Mar 22:20:15 22:24:21 70° 76° (ENE) 22:28:31 145.935
HO-68 31 Mar 22:26:25 22:32:19 26° 268° (W) 22:38:04 435.675
CANX-2 31 Mar 22:30:29 22:32:19 12° 272° (W) 22:33:56 2200.000
UWE-3 31 Mar 22:31:25 22:35:31 68° 259° (W) 22:39:42 435.000/436.395/437.385
CUBEBUG 1 31 Mar 22:34:06 22:36:44 16° 66° (ENE) 22:39:32 437.445
ZACube-1 31 Mar 22:34:08 22:38:15 79° 256° (WSW) 22:42:28 437.345
VELOX 1 31 Mar 22:40:02 22:44:10 39° 71° (ENE) 22:48:19 145.980
CUBEBUG 2 31 Mar 22:42:12 22:46:08 41° 262° (W) 22:50:05 437.445
PCSat 31 Mar 22:44:35 22:48:48 23° 45° (NE) 22:53:07 145.827
AISAT 31 Mar 22:45:44 22:49:59 47° 72° (ENE) 22:54:15 437.250
CINEMA 3 31 Mar 22:48:45 22:51:50 19° 267° (W) 22:54:48 145.822/145.860
UNISAT 6 31 Mar 22:53:23 22:56:39 19° 92° (E) 23:00:05 437.425
ISS 31 Mar 22:55:23 22:58:37 67° 326° (NW) 23:01:52 145.825
AAUSAT CUBESAT 2 31 Mar 22:59:24 23:00:24 11° 273° (W) 23:01:09 437.432
RS-15 31 Mar 23:00:48 23:09:17 24° 343° (NNW) 23:17:49 29.354- 29.394
TIGRISAT 31 Mar 23:02:07 23:05:44 23° 93° (E) 23:09:29 435.000
QB50P1 31 Mar 23:02:38 23:03:08 10° 88° (E) 23:03:56 145.935-145.965
DUCHIFAT 1 31 Mar 23:03:25 23:03:26 10° 88° (E) 23:03:45 145.980
HUMSAT D 31 Mar 23:04:24 23:08:30 72° 259° (W) 23:12:38 437.325/437.525
UKube-1 31 Mar 23:12:05 23:16:11 40° 262° (W) 23:20:16 .
QB50P2 31 Mar 23:16:35 23:19:10 16° 91° (E) 23:21:55 145.880/145.840
50 SAT 31 Mar 23:20:39 23:24:32 69° 259° (WSW) 23:28:29 437.505
ESTCUBE 1 31 Mar 23:23:48 23:28:17 60° 74° (ENE) 23:32:47 437.505/2401.250
DX 1 31 Mar 23:26:18 23:30:02 27° 264° (W) 23:33:45 434.975-435.025
BUGSAT 1 31 Mar 23:30:11 23:32:25 15° 91° (E) 23:34:47 437.445
ANTELSAT 31 Mar 23:33:12 23:37:41 50° 99° (E) 23:42:15 437.575/2403.000
YUBILEINY 31 Mar 23:43:42 23:50:11 23° 63° (ENE) 23:56:58 435.215
POPSAT HIP 1 31 Mar 23:43:51 23:47:37 31° 96° (E) 23:51:25 437.405
TISAT 1 31 Mar 23:48:11 23:51:19 21° 68° (ENE) 23:54:33 437.305
NANOSAT C BR1 31 Mar 23:53:11 23:57:09 39° 98° (E) 00:01:09 145.865
POLYITAN 1 31 Mar 23:59:45 00:03:53 48° 99° (E) 00:08:01 437.675
SPROUT 01 Apr 00:07:23 00:11:22 40° 72° (ENE) 00:15:24 437.525
CUBEBUG 1 01 Apr 00:08:29 00:12:46 49° 261° (W) 00:17:03 437.445
VELOX 1 01 Apr 00:17:42 00:20:56 19° 268° (W) 00:24:02 145.980
AISAT 01 Apr 00:24:04 00:26:54 16° 269° (W) 00:29:33 437.250
PCSat 01 Apr 00:27:19 00:32:40 60° 245° (WSW) 00:37:58 145.827
UNISAT 6 01 Apr 00:29:17 00:33:38 42° 288° (WNW) 00:38:02 437.425
ISS 01 Apr 00:33:12 00:35:30 17° 345° (NNW) 00:37:46 145.825
QB50P1 01 Apr 00:35:21 00:39:33 66° 285° (WNW) 00:43:45 145.935-145.965
DUCHIFAT 1 01 Apr 00:35:37 00:39:49 67° 285° (WNW) 00:44:00 145.980
TIGRISAT 01 Apr 00:38:23 00:42:35 35° 289° (WNW) 00:46:47 435.000
QB50P2 01 Apr 00:51:18 00:55:20 42° 288° (WNW) 00:59:21 145.880/145.840
ITUPSAT 1 01 Apr 01:01:50 01:05:34 23° 67° (ENE) 01:09:24 437.325
ESTCUBE 1 01 Apr 01:03:23 01:05:38 13° 271° (W) 01:07:39 437.505/2401.250
BUGSAT 1 01 Apr 01:04:20 01:08:09 41° 288° (WNW) 01:11:58 437.445
ANTELSAT 01 Apr 01:11:02 01:14:09 18° 294° (WNW) 01:17:08 437.575/2403.000
RS-15 01 Apr 01:18:20 01:26:56 24° 18° (NNE) 01:36:00 29.354- 29.394
POPSAT HIP 1 01 Apr 01:20:02 01:23:22 22° 292° (WNW) 01:26:37 437.405
TISAT 1 01 Apr 01:23:08 01:26:57 33° 263° (W) 01:30:45 437.305
NANOSAT C BR1 01 Apr 01:29:50 01:32:46 18° 293° (WNW) 01:35:35 145.865
POLYITAN 1 01 Apr 01:36:54 01:39:28 15° 294° (WNW) 01:41:53 437.675
YUBILEINY 01 Apr 01:39:20 01:48:10 78° 265° (W) 01:56:54 435.215
SPROUT 01 Apr 01:44:43 01:47:41 17° 269° (W) 01:50:30 437.525
SWISSCUBE 01 Apr 01:47:13 01:52:00 72° 74° (ENE) 01:56:49 437.505
BEESAT 01 Apr 01:49:42 01:54:28 70° 74° (ENE) 01:59:16 436.000
ISS 01 Apr 02:11:07 02:12:51 14° 5° (N) 02:14:36 145.825
Oscar 19 01 Apr 02:24:02 02:29:03 49° 99° (E) 02:34:05 437.125/150
ITUPSAT 1 01 Apr 02:38:45 02:43:16 39° 262° (W) 02:47:47 437.325
KKS-1 01 Apr 02:50:28 02:54:47 55° 73° (ENE) 02:59:09 437.445
SO-50 01 Apr 02:59:55 03:04:33 39° 49° (NE) 03:09:11 436.795
Gurwin Techsat 1B 01 Apr 03:01:50 03:06:24 29° 94° (E) 03:11:01 435.225
STARS 01 Apr 03:15:50 03:20:09 66° 75° (ENE) 03:24:31 437.465
SWISSCUBE 01 Apr 03:28:29 03:30:28 12° 272° (W) 03:32:11 437.505
BEESAT 01 Apr 03:30:48 03:32:55 12° 272° (W) 03:34:44 436.000
RS-15 01 Apr 03:31:21 03:42:35 58° 48° (NE) 03:54:22 29.354- 29.394
ITAMSAT 1 01 Apr 03:35:39 03:40:50 74° 102° (ESE) 03:46:00 435.822/435.867
YUBILEINY 01 Apr 03:39:11 03:43:41 14° 283° (WNW) 03:47:33 435.215
AO-7 01 Apr 03:44:56 03:49:14 16° 87° (E) 03:54:06 29.400- 29.500
ISS 01 Apr 03:47:09 03:50:02 29° 25° (NNE) 03:52:56 145.825
AIST 1 01 Apr 03:54:27 03:58:24 34° 92° (E) 04:02:24
JAS-2 01 Apr 04:01:34 04:06:27 19° 84° (E) 04:11:25 435.910
Oscar 19 01 Apr 04:04:11 04:08:06 21° 295° (WNW) 04:11:53 437.125/150
O/OREOS (USA 219) 01 Apr 04:19:13 04:23:50 84° 294° (WNW) 04:28:27 437.305
PHONESAT 2.4 01 Apr 04:25:24 04:25:57 10° 146° (SE) 04:26:37 2401.200-2431.200
AUBIESAT-1 01 Apr 04:25:56 04:28:29 16° 58° (ENE) 04:31:17 437.475
KKS-1 01 Apr 04:29:31 04:31:51 14° 270° (W) 04:33:58 437.445
SO-50 01 Apr 04:40:44 04:45:00 29° 246° (WSW) 04:49:10 436.795
Gurwin Techsat 1B 01 Apr 04:41:37 04:46:26 35° 291° (WNW) 04:51:12 435.225
MOZHAYETS 4 01 Apr 04:45:41 04:50:09 52° 74° (ENE) 04:54:42
M-CUBED/EXP-1 PRIME 01 Apr 04:51:34 04:55:13 31° 64° (ENE) 04:59:12 437.505
HORYU 2 01 Apr 04:55:17 04:59:49 89° 102° (ESE) 05:04:20 437.375
VERMONT LUNAR 01 Apr 04:55:49 04:58:50 32° 158° (SSE) 05:01:52 437.305
STARS 01 Apr 04:55:52 04:57:10 11° 272° (W) 04:58:12 437.465
ITAMSAT 1 01 Apr 05:16:51 05:19:48 15° 299° (WNW) 05:22:32 435.822/435.867
ISS 01 Apr 05:23:27 05:26:29 37° 222° (SW) 05:29:30 145.825
AIST 1 01 Apr 05:32:50 05:36:12 20° 289° (WNW) 05:39:27
AO-7 01 Apr 05:35:05 05:43:26 83° 107° (ESE) 05:51:46 29.400- 29.500
RS-15 01 Apr 05:44:08 05:54:55 46° 249° (WSW) 06:05:55 29.354- 29.394
JAS-2 01 Apr 05:44:49 05:52:35 82° 285° (WNW) 05:59:36 435.910
GONETS M04 01 Apr 05:57:16 06:05:09 36° 70° (ENE) 06:13:10
AUBIESAT-1 01 Apr 05:58:49 06:02:50 54° 256° (WSW) 06:07:12 437.475
PHONESAT 2.4 01 Apr 06:00:26 06:03:45 39° 160° (SSE) 06:07:04 2401.200-2431.200
O/OREOS (USA 219) 01 Apr 06:03:01 06:04:06 11° 312° (NW) 06:04:58 437.305
PRISM 01 Apr 06:15:42 06:19:17 28° 69° (ENE) 06:22:57 437.425
CUTE-I 01 Apr 06:19:44 06:22:38 15° 89° (E) 06:25:47 437.470
Cubesat XI-IV 01 Apr 06:20:42 06:23:45 16° 89° (E) 06:27:02 437.490
MOZHAYETS 4 01 Apr 06:24:56 06:27:47 15° 271° (W) 06:30:27
M-CUBED/EXP-1 PRIME 01 Apr 06:26:47 06:30:10 24° 262° (W) 06:33:44 437.505
VERMONT LUNAR 01 Apr 06:32:58 06:36:19 76° 174° (S) 06:39:39 437.305
CUBESAT XI-V 01 Apr 06:40:50 06:45:30 67° 74° (ENE) 06:50:11 437.345
STRAND 1 01 Apr 07:01:24 07:06:28 61° 72° (ENE) 07:11:33 437.568
CUSAT 1 01 Apr 07:04:44 07:08:21 23° 74° (ENE) 07:12:55 437.405
AO-7 01 Apr 07:29:08 07:35:27 24° 305° (NW) 07:41:30 29.400- 29.500
JAS-2 01 Apr 07:31:33 07:36:29 18° 304° (NW) 07:40:56 435.910
PHONESAT 2.4 01 Apr 07:38:23 07:41:55 79° 176° (S) 07:45:28 2401.200-2431.200
PRISM 01 Apr 07:51:16 07:54:46 24° 265° (W) 07:58:13 437.425
GONETS M04 01 Apr 07:53:53 08:02:20 51° 270° (W) 08:10:43
CUTE-I 01 Apr 07:58:00 08:03:18 67° 287° (WNW) 08:08:33 437.470
Cubesat XI-IV 01 Apr 07:59:08 08:04:25 64° 287° (WNW) 08:09:40 437.490
VERMONT LUNAR 01 Apr 08:10:37 08:13:56 65° 191° (S) 08:17:16 437.305
DANDE 01 Apr 08:11:59 08:16:17 72° 81° (E) 08:22:06 436.750
CUBESAT XI-V 01 Apr 08:21:22 08:23:29 12° 272° (W) 08:25:21 437.345
GOMX 1 01 Apr 08:38:25 08:39:39 11° 89° (E) 08:41:12 467.674
STRAND 1 01 Apr 08:42:56 08:46:09 16° 270° (W) 08:49:10 437.568
CUSAT 1 01 Apr 08:46:43 08:51:07 41° 263° (W) 08:56:49 437.405
CUTE 1.7 + AOD 2 01 Apr 08:52:23 08:54:17 13° 89° (E) 08:56:24 437.475
BEESAT 3 01 Apr 09:02:21 09:04:37 15° 111° (ESE) 09:07:02 437.485
AAUSAT CUBESAT 2 01 Apr 09:06:31 09:06:49 10° 87° (E) 09:07:23 437.432
SEEDS 01 Apr 09:16:03 09:19:11 20° 92° (E) 09:22:24 437.485
PHONESAT 2.4 01 Apr 09:16:43 09:20:12 59° 194° (SSW) 09:23:41 2401.200-2431.200
COMPASS 1 01 Apr 09:33:28 09:36:58 25° 94° (E) 09:40:32 437.405
BRITE-PL 01 Apr 09:43:06 09:47:22 89° 265° (W) 09:51:51 437.365/2234.400
DOVE 4 01 Apr 09:47:52 09:52:05 44° 98° (E) 09:56:32 437.250
VERMONT LUNAR 01 Apr 09:48:38 09:51:19 22° 206° (SSW) 09:54:00 437.305
HO-68 01 Apr 09:52:11 09:59:19 62° 102° (ESE) 10:06:26 435.675
Oscar 11 01 Apr 09:52:50 09:55:40 17° 91° (E) 09:58:38 145.826/435.025
UNISAT 6 01 Apr 09:53:24 09:56:03 17° 66° (ENE) 09:58:53 437.425
DANDE 01 Apr 09:57:56 09:59:36 11° 267° (W) 10:01:00 436.750
AIST 2 01 Apr 09:58:28 10:01:16 18° 111° (ESE) 10:04:14 435.215
DELFI C3 01 Apr 10:00:22 10:02:40 15° 90° (E) 10:05:08 145.870
TIGRISAT 01 Apr 10:01:45 10:04:46 20° 67° (ENE) 10:07:56 435.000
BEESAT 2 01 Apr 10:04:53 10:08:55 60° 119° (ESE) 10:13:02 435.950
FUNcube-1 01 Apr 10:09:58 10:12:13 14° 90° (E) 10:14:43 145.935
QB50P2 01 Apr 10:10:42 10:12:39 13° 64° (ENE) 10:14:45 145.880/145.840
CANX-2 01 Apr 10:12:52 10:17:12 71° 283° (WNW) 10:21:29 2200.000
GOMX 1 01 Apr 10:13:58 10:18:15 64° 285° (WNW) 10:22:47 467.674
UWE-3 01 Apr 10:21:29 10:25:04 24° 94° (E) 10:28:48 435.000/436.395/437.385
BUGSAT 1 01 Apr 10:21:41 10:23:05 12° 64° (ENE) 10:24:41 437.445
ZACube-1 01 Apr 10:23:18 10:26:32 20° 92° (E) 10:29:56 437.345
CUTE 1.7 + AOD 2 01 Apr 10:26:24 10:30:38 55° 286° (WNW) 10:34:50 437.475
ANTELSAT 01 Apr 10:32:33 10:36:35 42° 72° (ENE) 10:40:43 437.575/2403.000
CUBEBUG 2 01 Apr 10:32:42 10:36:53 38° 97° (E) 10:41:11 437.445
POPSAT HIP 1 01 Apr 10:37:08 10:40:31 24° 69° (ENE) 10:43:58 437.405
BEESAT 3 01 Apr 10:38:17 10:42:18 51° 306° (NW) 10:46:20 437.485
AAUSAT CUBESAT 2 01 Apr 10:38:46 10:43:00 67° 285° (WNW) 10:47:11 437.432
CINEMA 3 01 Apr 10:41:30 10:46:00 88° 103° (ESE) 10:50:41 145.822/145.860
NANOSAT C BR1 01 Apr 10:46:04 10:49:43 30° 70° (ENE) 10:53:27 145.865
HUMSAT D 01 Apr 10:49:24 10:52:22 19° 92° (E) 10:55:29 437.325/437.525
SEEDS 01 Apr 10:51:12 10:55:07 35° 289° (WNW) 10:58:59 437.485
POLYITAN 1 01 Apr 10:53:00 10:56:51 37° 72° (ENE) 11:00:46 437.675
PHONESAT 2.4 01 Apr 10:55:32 10:58:11 20° 208° (SSW) 11:00:46 2401.200-2431.200
UKube-1 01 Apr 10:59:42 11:03:34 32° 96° (E) 11:07:28 .
50 SAT 01 Apr 10:59:43 11:01:59 15° 91° (E) 11:04:24 437.505
COMPASS 1 01 Apr 11:09:01 11:12:40 27° 290° (WNW) 11:16:14 437.405
DX 1 01 Apr 11:13:56 11:18:09 49° 100° (E) 11:22:22 434.975-435.025
ESTCUBE 1 01 Apr 11:18:37 11:20:26 13° 88° (E) 11:22:31 437.505/2401.250
DOVE 4 01 Apr 11:26:37 11:29:38 18° 292° (WNW) 11:32:37 437.250
DUCHIFAT 1 01 Apr 11:27:51 11:32:03 89° 96° (E) 11:36:17 145.980
QB50P1 01 Apr 11:27:53 11:32:06 89° 241° (WSW) 11:36:20 145.935-145.965
Oscar 11 01 Apr 11:27:57 11:32:06 42° 288° (WNW) 11:36:12 145.826/435.025
UNISAT 6 01 Apr 11:28:26 11:32:32 45° 262° (W) 11:36:43 437.425
DELFI C3 01 Apr 11:34:13 11:38:07 42° 287° (WNW) 11:41:59 145.870
AIST 2 01 Apr 11:35:26 11:39:34 46° 307° (NW) 11:43:44 435.215
TIGRISAT 01 Apr 11:37:21 11:41:18 37° 263° (W) 11:45:19 435.000
HO-68 01 Apr 11:40:43 11:46:37 27° 300° (WNW) 11:52:20 435.675
QB50P2 01 Apr 11:43:58 11:48:08 57° 259° (W) 11:52:18 145.880/145.840
FUNcube-1 01 Apr 11:44:37 11:48:56 54° 286° (WNW) 11:53:19 145.935
BEESAT 2 01 Apr 11:44:42 11:47:29 17° 318° (NW) 11:50:11 435.950
BUGSAT 1 01 Apr 11:54:02 11:58:08 62° 259° (WSW) 12:02:13 437.445
UWE-3 01 Apr 11:57:41 12:01:40 32° 289° (WNW) 12:05:40 435.000/436.395/437.385
CUBEBUG 1 01 Apr 11:57:41 12:01:27 29° 95° (E) 12:05:15 437.445
ZACube-1 01 Apr 11:58:57 12:03:03 37° 288° (WNW) 12:07:11 437.345
VELOX 1 01 Apr 12:06:44 12:11:09 82° 103° (ESE) 12:15:33 145.980
CUBEBUG 2 01 Apr 12:09:59 12:13:23 21° 292° (WNW) 12:16:45 437.445
ANTELSAT 01 Apr 12:10:52 12:13:40 16° 269° (W) 12:16:21 437.575/2403.000
POPSAT HIP 1 01 Apr 12:12:40 12:16:20 28° 265° (W) 12:19:57 437.405
AISAT 01 Apr 12:12:50 12:17:17 84° 281° (WNW) 12:21:41 437.250
NANOSAT C BR1 01 Apr 12:22:17 12:25:39 22° 266° (W) 12:28:55 145.865
HUMSAT D 01 Apr 12:24:20 12:28:18 37° 288° (WNW) 12:32:16 437.325/437.525
POLYITAN 1 01 Apr 12:29:58 12:32:58 18° 268° (W) 12:35:51 437.675
50 SAT 01 Apr 12:33:18 12:37:09 42° 287° (WNW) 12:40:58 437.505
UKube-1 01 Apr 12:36:09 12:39:35 23° 293° (WNW) 12:42:55 .
YUBILEINY 01 Apr 12:45:36 12:52:12 26° 82° (E) 12:59:09 435.215
O/OREOS (USA 219) 01 Apr 12:50:53 12:54:13 20° 55° (NE) 12:57:37 437.305
DX 1 01 Apr 12:51:22 12:54:04 16° 295° (WNW) 12:56:36 434.975-435.025
ESTCUBE 1 01 Apr 12:53:21 12:57:49 61° 286° (WNW) 13:02:15 437.505/2401.250
TISAT 1 01 Apr 13:07:30 13:11:22 36° 97° (E) 13:15:16 437.305
ITAMSAT 1 01 Apr 13:17:07 13:19:52 15° 61° (ENE) 13:22:50 435.822/435.867
PCSat 01 Apr 13:27:42 13:31:05 18° 106° (ESE) 13:34:41 145.827
SPROUT 01 Apr 13:29:42 13:34:00 81° 102° (ESE) 13:38:18 437.525
CUBEBUG 1 01 Apr 13:34:11 13:37:45 25° 291° (WNW) 13:41:13 437.445
Oscar 19 01 Apr 13:40:50 13:45:55 71° 75° (ENE) 13:51:03 437.125/150
VELOX 1 01 Apr 13:46:17 13:47:09 10° 298° (WNW) 13:47:46 145.980
SWISSCUBE 01 Apr 13:48:45 13:51:57 18° 91° (E) 13:55:19 437.505
BEESAT 01 Apr 13:51:10 13:54:18 18° 91° (E) 13:57:36 436.000
Gurwin Techsat 1B 01 Apr 14:22:46 14:27:48 46° 71° (ENE) 14:32:54 435.225
O/OREOS (USA 219) 01 Apr 14:29:35 14:33:54 43° 253° (WSW) 14:38:08 437.305
ITUPSAT 1 01 Apr 14:39:05 14:43:47 53° 100° (E) 14:48:28 437.325
YUBILEINY 01 Apr 14:39:34 14:48:22 69° 281° (WNW) 14:57:11 435.215
AO-7 01 Apr 14:43:44 14:50:01 26° 55° (NE) 14:56:33 29.400- 29.500
TISAT 1 01 Apr 14:43:55 14:46:58 19° 293° (WNW) 14:49:54 437.305
KKS-1 01 Apr 14:44:27 14:45:12 10° 88° (E) 14:46:15 437.445
ITAMSAT 1 01 Apr 14:53:36 14:58:49 75° 257° (WSW) 15:04:04 435.822/435.867
STARS 01 Apr 15:07:41 15:09:22 12° 89° (E) 15:11:17 437.465
PCSat 01 Apr 15:08:39 15:14:02 64° 302° (WNW) 15:19:27 145.827
Oscar 19 01 Apr 15:23:19 15:25:55 13° 272° (W) 15:28:13 437.125/150
SWISSCUBE 01 Apr 15:25:32 15:30:08 47° 289° (WNW) 15:34:40 437.505
BEESAT 01 Apr 15:27:52 15:32:29 48° 288° (WNW) 15:37:03 436.000
AIST 1 01 Apr 15:38:44 15:43:03 82° 264° (W) 15:47:19
HORYU 2 01 Apr 15:53:27 15:57:53 82° 76° (ENE) 16:02:22 437.375
JAS-2 01 Apr 15:55:20 16:02:03 48° 68° (ENE) 16:09:25 435.910
Gurwin Techsat 1B 01 Apr 16:03:54 16:08:04 22° 268° (W) 16:12:06 435.225
KKS-1 01 Apr 16:17:59 16:22:26 71° 285° (WNW) 16:26:52 437.445
ITUPSAT 1 01 Apr 16:18:06 16:21:18 18° 296° (WNW) 16:24:21 437.325
AO-7 01 Apr 16:33:48 16:42:07 77° 254° (WSW) 16:50:28 29.400- 29.500
STARS 01 Apr 16:41:57 16:46:18 60° 286° (WNW) 16:50:39 437.465
MOZHAYETS 4 01 Apr 16:42:48 16:44:43 13° 88° (E) 16:46:53
YUBILEINY 01 Apr 16:42:57 16:47:20 14° 305° (NW) 16:51:08 435.215
PCSat 01 Apr 16:56:10 16:58:38 13° 324° (NW) 17:00:55 145.827
SO-50 01 Apr 17:18:07 17:19:03 11° 108° (ESE) 17:20:17 436.795
BEESAT 3 01 Apr 17:20:50 17:22:41 13° 38° (NE) 17:24:41 437.485
JAS-2 01 Apr 17:40:53 17:47:17 35° 268° (W) 17:54:08 435.910
CUTE-I 01 Apr 17:41:06 17:45:27 27° 66° (ENE) 17:49:55 437.470
AUBIESAT-1 01 Apr 17:41:50 17:44:00 13° 92° (E) 17:46:23 437.475
Cubesat XI-IV 01 Apr 17:42:16 17:46:41 28° 66° (ENE) 17:51:14 437.490
RS-15 01 Apr 17:56:52 18:05:48 32° 107° (ESE) 18:15:09 29.354- 29.394
M-CUBED/EXP-1 PRIME 01 Apr 18:07:51 18:12:00 28° 99° (E) 18:16:04 437.505
MOZHAYETS 4 01 Apr 18:17:51 18:22:29 64° 285° (WNW) 18:27:03
AIST 2 01 Apr 18:19:46 18:22:18 15° 40° (NE) 18:24:56 435.215
BEESAT 2 01 Apr 18:24:32 18:28:24 37° 51° (NE) 18:32:14 435.950
AO-7 01 Apr 18:32:10 18:36:27 14° 274° (W) 18:40:07 29.400- 29.500
CUBESAT XI-V 01 Apr 18:38:55 18:41:46 17° 90° (E) 18:44:47 437.345
SO-50 01 Apr 18:54:18 18:58:57 84° 305° (NW) 19:03:46 436.795
BEESAT 3 01 Apr 18:57:15 19:01:23 86° 239° (WSW) 19:05:26 437.485
GONETS M04 01 Apr 18:58:29 19:06:17 40° 87° (E) 19:14:18
STRAND 1 01 Apr 19:12:53 19:16:33 20° 92° (E) 19:20:21 437.568
AUBIESAT-1 01 Apr 19:14:33 19:19:23 70° 290° (WNW) 19:24:00 437.475
BRITE-PL 01 Apr 19:20:08 19:20:39 10° 64° (ENE) 19:21:25 437.365/2234.400
CUTE-I 01 Apr 19:20:19 19:25:22 41° 262° (W) 19:30:24 437.470
Cubesat XI-IV 01 Apr 19:21:38 19:26:39 39° 263° (W) 19:31:39 437.490
PRISM 01 Apr 19:33:08 19:37:08 44° 99° (E) 19:41:06 437.425
M-CUBED/EXP-1 PRIME 01 Apr 19:42:29 19:46:53 34° 296° (WNW) 19:51:06 437.505
GOMX 1 01 Apr 19:47:17 19:49:04 13° 66° (ENE) 19:51:02 467.674
CUTE 1.7 + AOD 2 01 Apr 19:47:34 19:47:51 10° 63° (ENE) 19:48:21 437.475
AIST 2 01 Apr 19:57:11 20:01:26 71° 240° (WSW) 20:05:34 435.215
BEESAT 2 01 Apr 20:03:11 20:06:20 21° 247° (WSW) 20:09:22 435.950
RS-15 01 Apr 20:06:31 20:17:24 70° 308° (NW) 20:28:31 29.354- 29.394
SEEDS 01 Apr 20:09:13 20:11:33 15° 66° (ENE) 20:14:04 437.485
CUBESAT XI-V 01 Apr 20:15:05 20:19:33 48° 287° (WNW) 20:23:58 437.345
CUSAT 1 01 Apr 20:17:58 20:18:32 11° 93° (E) 20:19:13 437.405
HO-68 01 Apr 20:20:35 20:27:17 46° 66° (ENE) 20:34:07 435.675
COMPASS 1 01 Apr 20:25:34 20:28:24 18° 67° (ENE) 20:31:23 437.405
